Location: Arthez
(43.0833°N, 0.2500°W)
Time: 01:28:18
(UTC+00:00)

NOSS 3-1 (A) - Pass Details

Date: 03 June 2022
Orbit: 711 x 1501 km, 63.4° (Epoch: 21 May)

Event Time Altitude Azimuth Distance (km) Brightness Sun altitude
Rises 20:35:26 0° 325° (NW) 3,806 8.5 -9.5°
Reaches altitude 10° 20:38:16 10° 336° (NNW) 2,972 7.3 -9.9°
Maximum altitude 20:44:37 32° 38° (NE) 2,015 5.2 -10.7°
Drops below altitude 10° 20:51:56 10° 98° (E) 3,456 5.9 -11.6°
Enters shadow 20:53:10 - 102° (ESE) 3,818 6.1 -11.8°
